Wind_Speed
16 14 11 11 11 9 8 8 7 6 7 6 6 9 11 13 13 14 12 11 12 12 13 13 13 13 14 14 13 13 14 15 15 15 15 15 15 14 13 13 13 9 5
14 9 10 11 9 7 8 6 5 5 7 9 7 6 8 10 11 11 12 13 12 12 13 13 14 15 14 14 15 15 16 16 17 17 16 16 15 14 14 13 13 12 8
11 9 9 8 6 6 5 3 3 4 7 8 10 8 6 7 8 9 10 10 10 11 11 12 12 11 12 14 16 16 15 16 19 20 16 15 15 14 12 10 11 12 10
11 9 7 8 8 8 5 3 2 3 4 5 7 8 9 8 8 8 8 9 9 8 8 10 8 9 12 15 16 16 16 19 22 24 19 17 17 17 16 13 7 8 11
10 7 7 8 8 6 5 4 3 3 3 5 6 5 5 4 5 7 7 10 11 10 10 10 9 11 13 15 16 16 17 20 24 27 26 19 16 14 15 14 11 6 3
9 7 6 8 6 5 4 4 5 4 5 6 5 3 4 6 7 5 5 6 7 11 10 9 10 12 13 14 16 18 19 21 24 27 27 24 18 17 13 13 11 7 2
8 6 7 6 4 3 2 2 4 3 4 5 2 2 2 3 4 4 4 5 6 6 7 7 9 12 13 14 17 19 20 20 23 26 27 28 23 20 16 10 8 7 2
11 10 7 6 5 4 4 1 2 2 4 4 2 2 4 2 2 2 2 6 8 8 6 6 8 10 14 17 18 19 19 19 23 26 28 30 29 27 20 12 5 3 2
13 14 11 9 9 7 6 4 1 2 5 5 4 3 3 4 5 4 3 5 7 6 6 7 9 11 15 18 20 20 19 20 23 25 28 31 32 31 24 16 5 3 4
15 14 13 11 10 8 7 6 1 2 6 5 4 4 4 4 4 4 2 5 6 5 8 10 9 10 16 20 20 20 19 19 23 24 26 30 35 35 27 20 10 6 8
13 15 13 11 8 8 9 9 4 2 6 6 4 4 4 5 6 4 2 4 3 4 5 7 12 8 15 20 20 17 18 18 21 23 23 28 31 36 29 22 14 9 11
12 10 11 12 8 6 11 9 6 4 3 5 6 6 5 2 4 6 5 5 9 7 5 5 6 9 16 19 20 17 17 17 20 22 22 25 28 32 31 23 15 10 11
12 11 13 12 8 6 10 8 7 5 3 2 3 5 7 7 7 5 5 8 8 8 11 9 6 13 17 20 22 17 14 18 20 20 20 21 26 27 31 25 16 10 9
10 10 12 12 10 10 9 10 9 8 7 5 2 1 4 5 5 5 6 7 6 4 4 6 8 13 17 21 21 17 13 16 17 19 20 19 22 22 26 27 18 10 7
11 9 10 11 11 11 13 11 11 11 10 10 8 5 4 3 4 5 6 7 8 8 8 8 12 14 16 19 19 16 14 14 15 18 19 17 19 20 20 23 21 13 5
12 10 10 10 10 10 12 13 12 13 13 11 11 10 9 7 7 8 8 9 10 11 10 14 15 16 16 17 16 14 13 13 15 18 20 16 15 17 17 18 20 17 8
11 12 12 11 11 11 10 12 14 12 13 13 12 12 11 11 11 11 12 11 12 13 14 17 18 20 20 16 14 13 14 16 18 19 18 15 12 14 13 15 17 17 13
12 13 11 13 12 13 13 13 12 13 11 11 11 11 11 12 13 14 13 11 10 10 12 15 15 14 13 13 13 13 13 16 19 18 13 11 12 12 9 12 14 15 15
11 11 11 6 7 9 10 13 12 12 11 10 11 9 8 9 10 10 9 7 6 7 10 13 14 13 13 13 13 12 13 12 14 13 9 11 13 12 9 10 11 11 11
15 13 11 10 8 8 10 11 11 10 9 8 9 12 11 10 8 7 8 8 7 10 12 13 15 14 14 14 16 17 14 12 12 12 11 12 13 14 13 11 11 9 7
16 16 15 13 11 13 12 15 13 12 13 12 12 10 11 11 11 11 12 11 12 13 13 15 16 18 17 15 15 16 16 16 15 16 15 14 15 15 15 14 12 11 9
18 17 17 18 17 15 16 15 16 16 15 15 15 14 15 14 13 14 14 13 14 15 16 17 18 20 20 20 20 20 20 22 23 17 22 18 18 14 12 13 12 13 12
15 18 17 16 17 18 17 17 18 18 18 18 18 18 17 17 17 17 17 16 16 16 17 19 21 21 23 23 25 25 25 26 27 26 26 27 21 17 11 10 11 10 11
6 11 14 13 11 15 18 19 19 18 20 20 20 20 21 20 20 20 20 21 21 21 21 22 24 25 26 26 26 26 27 28 29 28 24 27 23 18 13 13 12 8 7
6 4 8 6 3 6 11 15 21 22 22 24 24 25 25 24 25 24 25 26 27 26 25 26 26 26 25 24 23 25 25 25 29 28 26 29 23 23 21 18 14 12 13
3 3 4 5 6 6 7 11 12 12 12 15 22 22 24 26 26 25 25 25 27 27 27 27 26 25 24 24 22 25 26 27 27 30 25 27 28 26 28 27 20 19 21
Wind_Direction
136 131 131 128 126 113 96 88 81 73 59 72 75 72 68 62 52 53 57 63 68 70 67 63 56 47 39 29 19 11 2 355 346 338 332 324 317 310 301 296 299 299 291
137 129 129 140 133 102 121 104 88 65 47 70 81 82 71 63 58 58 57 62 67 69 68 63 55 49 37 24 17 10 5 0 352 345 337 330 322 312 297 286 278 277 276
150 139 126 134 136 112 100 103 57 29 36 46 62 75 78 70 74 67 67 64 60 59 61 59 52 39 22 10 5 8 7 9 7 3 354 354 353 342 333 309 274 262 257
147 142 135 146 141 137 81 80 74 4 5 27 43 53 75 82 77 72 61 47 38 41 50 49 41 28 17 11 4 7 10 14 15 16 12 12 7 2 4 7 351 272 250
159 146 141 137 138 135 110 84 56 38 18 15 10 27 49 58 62 78 61 61 58 52 51 47 42 39 24 19 11 12 11 18 20 17 16 14 4 1 359 353 6 6 273
172 162 150 150 137 148 119 79 27 42 26 359 7 59 81 89 92 68 62 70 60 56 65 54 35 27 20 15 10 12 13 15 17 16 14 11 4 355 348 346 353 358 329
187 175 172 165 140 168 147 60 29 69 9 0 27 76 45 104 107 74 42 35 44 52 53 50 34 23 10 10 12 10 12 15 15 13 11 9 6 1 345 322 318 351 37
205 209 204 198 202 211 199 167 17 24 18 29 46 35 18 83 108 82 34 21 34 44 64 34 35 17 10 19 20 15 11 18 17 13 12 10 8 5 2 355 285 296 76
209 210 221 223 200 199 203 206 15 22 28 22 28 40 14 16 12 18 29 46 54 53 43 44 26 22 28 27 27 21 18 20 18 13 13 13 13 12 14 14 21 179 139
209 212 217 218 209 207 201 200 208 50 43 42 48 47 36 21 8 35 58 57 30 53 43 31 15 29 29 26 24 24 20 15 16 12 13 16 18 19 21 23 43 124 137
205 212 215 210 209 212 203 195 191 116 60 44 67 76 60 60 38 27 50 38 8 353 8 5 19 27 18 14 13 16 11 8 14 13 13 15 18 22 25 31 50 101 125
198 200 201 192 204 207 190 192 197 193 108 59 56 48 38 53 37 60 75 57 42 47 46 21 31 14 5 3 2 6 6 5 7 11 14 13 17 23 27 34 50 84 122
195 200 196 201 207 201 199 201 209 225 202 151 44 41 43 52 45 48 43 35 45 69 77 65 30 6 360 358 358 359 355 358 5 8 12 12 17 23 26 32 43 71 113
203 200 203 206 216 214 212 222 224 236 242 230 224 350 29 32 34 32 38 36 33 52 8 9 9 359 354 357 359 3 355 356 358 6 8 9 14 22 27 28 36 53 101
206 202 203 209 219 219 219 226 238 245 246 243 236 247 285 319 335 346 345 348 356 354 348 331 343 347 348 354 358 359 355 358 356 360 1 4 6 15 27 29 31 40 65
209 209 215 212 218 228 229 232 236 240 245 250 244 244 259 283 297 313 322 327 329 332 333 330 333 334 335 337 340 339 349 350 348 348 348 352 358 8 21 28 31 35 39
213 220 218 228 229 234 245 236 236 240 238 248 250 249 251 262 275 279 291 307 309 309 310 311 317 318 323 324 326 319 320 329 333 337 341 343 353 3 14 25 27 31 39
233 228 241 237 240 231 242 236 233 234 238 241 241 255 255 262 270 276 281 293 303 309 319 320 328 333 337 333 336 327 318 323 327 337 345 356 355 357 6 12 18 21 29
244 241 233 239 220 227 242 237 235 232 236 239 234 253 254 264 264 260 267 278 293 312 318 321 328 337 345 345 338 335 327 326 328 344 359 3 1 356 345 341 352 3 12
240 242 249 257 251 246 240 231 237 244 249 249 247 247 247 258 262 261 264 260 275 303 307 308 316 323 330 338 340 341 335 338 337 338 333 346 351 347 321 309 316 334 344
240 240 240 245 247 251 250 247 247 254 258 262 263 261 259 262 262 270 275 266 273 290 299 304 309 314 317 322 327 331 328 327 327 325 322 325 331 341 330 312 288 299 316
235 237 241 243 247 246 243 243 243 253 253 257 261 259 260 259 262 270 272 276 278 285 290 297 300 302 308 311 315 316 315 317 317 320 313 313 321 326 314 335 308 276 287
240 236 237 242 241 245 251 250 252 258 260 262 264 265 263 262 265 270 274 276 272 277 282 289 291 294 296 300 301 301 302 301 301 305 309 306 314 313 299 297 320 301 279
284 275 256 261 254 251 254 255 255 259 267 269 271 272 275 274 268 269 272 272 274 277 280 282 286 290 291 294 295 298 299 301 299 301 305 304 313 314 304 293 287 286 284
224 245 249 245 259 273 279 275 271 263 263 265 266 268 270 271 272 273 275 278 280 280 280 279 281 286 288 291 295 293 294 296 298 302 304 305 311 311 307 302 307 278 266
187 201 237 267 282 324 300 288 288 285 298 291 275 269 264 266 269 269 270 274 278 282 281 280 280 282 284 287 289 292 294 293 294 295 297 301 304 306 304 301 301 296 296
Height
1604 1606 1608 1609 1610 1611 1611 1611 1612 1611 1611 1611 1611 1611 1610 1610 1610 1610 1610 1609 1609 1608 1608 1608 1608 1607 1605 1604 1602 1601 1598 1596 1592 1590 1587 1584 1582 1580 1578 1576 1575 1575 1574
1607 1609 1610 1611 1612 1613 1613 1614 1614 1614 1614 1613 1613 1613 1612 1612 1613 1613 1613 1612 1612 1611 1611 1611 1610 1609 1608 1606 1604 1602 1599 1596 1592 1589 1585 1582 1579 1577 1575 1574 1573 1572 1573
1609 1610 1612 1612 1614 1614 1615 1616 1616 1615 1615 1615 1615 1614 1614 1614 1615 1615 1615 1615 1615 1614 1613 1613 1612 1611 1610 1608 1605 1604 1599 1596 1593 1588 1585 1582 1577 1575 1572 1570 1569 1569 1570
1611 1612 1613 1614 1615 1616 1617 1617 1617 1617 1617 1617 1616 1616 1616 1617 1617 1617 1618 1617 1617 1616 1615 1615 1614 1613 1611 1609 1605 1604 1601 1596 1593 1588 1585 1581 1577 1574 1570 1568 1567 1566 1568
1612 1613 1614 1616 1617 1617 1618 1619 1619 1618 1618 1619 1618 1618 1618 1619 1619 1619 1619 1619 1618 1618 1616 1616 1616 1614 1612 1610 1607 1604 1600 1598 1593 1590 1585 1581 1577 1575 1572 1568 1567 1565 1566
1613 1614 1615 1617 1618 1619 1619 1620 1620 1620 1620 1620 1619 1619 1619 1620 1620 1621 1621 1620 1620 1619 1618 1618 1617 1615 1613 1610 1608 1604 1601 1597 1594 1590 1585 1581 1578 1574 1570 1568 1566 1565 1565
1613 1615 1616 1618 1619 1619 1620 1621 1621 1621 1621 1621 1621 1621 1621 1620 1621 1622 1622 1621 1621 1621 1620 1619 1618 1616 1614 1611 1608 1605 1601 1598 1595 1591 1586 1581 1577 1573 1568 1565 1564 1564 1564
1613 1615 1617 1618 1619 1620 1621 1622 1623 1623 1622 1622 1622 1622 1622 1623 1622 1622 1622 1622 1622 1621 1621 1620 1619 1617 1615 1612 1609 1606 1602 1600 1596 1592 1587 1582 1576 1571 1566 1562 1561 1563 1565
1612 1615 1617 1619 1619 1621 1622 1623 1624 1624 1623 1623 1623 1624 1624 1624 1623 1623 1623 1623 1623 1622 1622 1621 1620 1618 1616 1613 1610 1606 1603 1601 1597 1593 1589 1583 1577 1571 1565 1561 1560 1561 1565
1611 1614 1616 1618 1620 1621 1622 1623 1624 1625 1624 1624 1624 1624 1625 1625 1624 1625 1624 1624 1624 1623 1623 1622 1621 1619 1617 1614 1611 1607 1605 1602 1598 1595 1590 1585 1579 1572 1566 1561 1560 1561 1563
1611 1613 1616 1618 1619 1621 1622 1623 1625 1625 1625 1626 1625 1625 1625 1625 1625 1625 1626 1626 1625 1624 1623 1622 1622 1620 1617 1615 1611 1608 1606 1603 1599 1596 1592 1586 1582 1576 1569 1565 1563 1563 1565
1610 1613 1614 1617 1619 1620 1622 1624 1625 1625 1626 1627 1626 1626 1626 1626 1626 1626 1626 1626 1625 1624 1623 1623 1622 1620 1618 1615 1612 1609 1606 1603 1600 1598 1594 1588 1585 1580 1573 1569 1567 1567 1567
1609 1612 1614 1617 1619 1620 1622 1623 1624 1625 1626 1627 1628 1627 1627 1627 1627 1627 1628 1627 1626 1625 1624 1623 1623 1620 1618 1615 1612 1609 1607 1604 1601 1599 1596 1591 1588 1583 1578 1573 1570 1570 1570
1609 1611 1613 1615 1617 1619 1621 1622 1623 1625 1626 1627 1628 1628 1628 1629 1629 1628 1628 1628 1627 1626 1625 1624 1623 1621 1618 1615 1612 1610 1607 1605 1602 1600 1597 1593 1589 1586 1582 1577 1574 1573 1573
1608 1610 1612 1614 1615 1617 1619 1621 1623 1624 1624 1626 1627 1628 1629 1629 1629 1628 1628 1627 1626 1625 1625 1624 1623 1621 1619 1615 1612 1610 1607 1605 1602 1600 1597 1594 1590 1588 1585 1581 1577 1575 1574
1606 1608 1611 1612 1614 1615 1617 1618 1620 1622 1623 1624 1625 1626 1627 1628 1628 1628 1627 1626 1625 1624 1623 1622 1621 1619 1618 1615 1612 1610 1607 1605 1602 1600 1597 1594 1591 1588 1586 1584 1580 1577 1575
1605 1607 1609 1611 1612 1614 1615 1616 1618 1619 1620 1622 1623 1624 1625 1625 1626 1627 1626 1625 1624 1622 1622 1620 1619 1618 1615 1612 1611 1609 1606 1604 1601 1599 1596 1593 1591 1589 1587 1585 1582 1579 1577
1604 1605 1606 1607 1609 1611 1613 1614 1615 1617 1618 1619 1620 1621 1622 1623 1623 1623 1623 1622 1622 1620 1619 1618 1617 1615 1613 1610 1608 1606 1605 1603 1600 1598 1595 1593 1591 1589 1587 1585 1583 1581 1579
1601 1603 1604 1604 1606 1608 1610 1611 1612 1614 1615 1616 1617 1618 1619 1620 1620 1620 1620 1620 1620 1619 1618 1616 1615 1613 1611 1610 1607 1606 1603 1602 1599 1597 1595 1593 1591 1589 1587 1585 1583 1581 1579
1599 1601 1602 1603 1605 1605 1607 1609 1611 1612 1613 1614 1614 1615 1617 1617 1618 1618 1618 1617 1617 1617 1616 1614 1613 1611 1610 1608 1606 1604 1601 1600 1598 1596 1594 1592 1590 1588 1585 1584 1582 1580 1578
1596 1598 1600 1602 1602 1603 1604 1606 1607 1609 1610 1611 1612 1612 1613 1614 1615 1615 1614 1614 1614 1614 1613 1612 1610 1609 1607 1606 1604 1602 1600 1598 1596 1594 1591 1590 1588 1586 1583 1581 1580 1579 1577
1592 1594 1596 1597 1599 1599 1600 1602 1603 1605 1606 1607 1608 1608 1609 1610 1611 1611 1611 1611 1610 1610 1610 1608 1607 1606 1605 1604 1602 1600 1598 1595 1593 1593 1587 1585 1584 1582 1581 1578 1576 1576 1575
1588 1590 1591 1592 1594 1595 1597 1598 1599 1600 1601 1602 1603 1604 1604 1605 1606 1607 1607 1607 1607 1606 1605 1604 1603 1603 1601 1600 1598 1596 1594 1592 1590 1588 1586 1581 1581 1578 1577 1575 1574 1572 1572
1584 1586 1586 1587 1589 1591 1592 1593 1594 1596 1597 1597 1598 1599 1599 1600 1601 1601 1601 1601 1602 1601 1601 1599 1598 1597 1596 1596 1594 1592 1589 1587 1585 1583 1583 1577 1577 1574 1573 1572 1571 1570 1569
1580 1582 1583 1584 1585 1586 1587 1588 1589 1591 1591 1592 1593 1593 1594 1594 1594 1595 1594 1594 1594 1595 1595 1593 1592 1591 1590 1590 1589 1587 1586 1583 1580 1578 1577 1573 1573 1570 1568 1567 1567 1566 1566
1578 1579 1580 1581 1581 1582 1583 1583 1585 1585 1585 1584 1587 1587 1587 1587 1587 1587 1587 1587 1587 1587 1586 1586 1585 1584 1584 1583 1583 1581 1580 1578 1576 1572 1573 1570 1567 1566 1562 1561 1562 1561 1561